LiveATC.Net - Listen to live air traffic control over the Internet!


ICAO: KFTY  IATA: FTY   Airport: Fulton County Airport-Brown Field
City: Atlanta   State/Province: Georgia
Country: United States   Continent: North America
KFTY METAR Weather: KFTY 242253Z 15006KT 10SM FEW090 27/21 A3000 RMK AO2 SLP150 T02720211
KFTY Flight Activity (FlightAware)
KFTY Airport Info   (iFlightPlanner)
KFTY VFR Sectional Chart   (iFlightPlanner) 
KFTY IFR Low Chart   (iFlightPlanner) 

KFTY Ground/Tower
Feed Status: UP   Listeners: 0
Listen in your browser - HTML5 player (in browser, HTML5)
Click here to listen with your own player (launches your MP3 player)
KFTY Ground/Tower Audio Archives
FacilityFrequency
County Ground121.700
County Tower118.450
Feed sponsored by:


NOTICE

Unauthorized use prohibited. See LiveATC.net Terms of Service


Airport/ARTCC Code
Frequency Search
(e.g., 124.400, 128.75)
Site-wide search
 


Browse LiveATC Feeds
Top 50 LiveATC Feeds
LiveATC Feed Map
Bad Weather Areas

LiveATC FAQ
Offer LiveATC feed
Contact LiveATC.net
Press Inquiries

LiveATC on iPhone
LiveATC on Android

Windows Phone
Windows 8/10

LiveATC Mobile
(Mobile browser)

ATC Audio Archives
Interesting Recordings

LiveATC Forums


Home Page
About LiveATC.net
Make a Donation
Terms of Use
Privacy Policy

Canadian Air Freqs

AIRMETs/SIGMETs

FAA Airport Status
Nat'l Airspace Status
Arrival Demand Charts


Server Software By:
Icecast.org
Liquidsoap